Погода в Берувеле

Шри-Ланка     6°27′21″N   79°59′55″E
темп.,
°C
ветер,
м/с
пор.,
м/с
влажн.,
%
обл.,
%
осадки,
мм/ч
давл.,
гПа
погр.,
м
13 апреля, вт
вт1323:30+26юв2385100 6.6 1012155
02:30+25вюв118750 1.6 101176
05:30+25вюв228716 1.9 1011144
08:30+27юв237712 0.0 1013382
11:30+30ююз336289 0.0 10121139
14:30+29юз337338 1.6 1010673
17:30+27ююз2279100 5.2 1010171
20:30+26ююв2281100 1.3 1012240
14 апреля, ср
ср1423:30+26вюв118695 3.7 101241
02:30+25юв228773 1.7 1010152
05:30+25вюв228814 1.7 1010143
08:30+27юв1278100 0.0 1013356
11:30+29юз326884 0.5 1012928
14:30+29юз337295 2.3 1009753
17:30+28юз2373100 3.1 1009449
20:30+26ююв0182100 4.0 101235
15 апреля, чт
чт1523:30+26вюв2286100 5.4 1011159
02:30+25юв128791 0.4 1010163
05:30+25вюв228963 0.9 1010130
08:30+27юв1179100 1.5 1013179
11:30+29юз336886 4.3 1012925
14:30+29зюз436988 0.9 1009924
17:30+28зюз237354 1.6 1009500
20:30+27юз017894 0.0 1011388
16 апреля, пт
пт1623:30+26ю118212 0.9 1011394
02:30+25юв118578 1.7 1009288
05:30+25вюв228787 2.2 1010150
08:30+27всв108095 0.7 1013263
11:30+30зюз326636 0.8 10111036
14:30+28юз337262 0.3 1009557
17:30+29юз237115 0.3 1009591
20:30+27ююз237718 0.0 1012435
17 апреля, сб
сб1723:30+26ю238288 0.8 1012257
02:30+26ю238365 1.4 1010392
05:30+26ююв238520 1.4 1011406
08:30+28ююв227468 0.0 1014615
11:30+30юз436465 0.1 10131182
14:30+29юз556988 0.1 1010866
17:30+29юз4471100 0.1 1011807
20:30+27ю347956 0.0 1013480